"Pseudo-MPEC" for X65981

Created 2019 Mar 18 18:18:17 UT using Find_Orb

Click here for an explanation of pseudo-MPECs

 
 Astrometry: 
     X65981   C2019 03 07QutAstrometryg]t=V96?/'lBhredacted;QlehpTYdlpWfF==AkD29
     X65981   C2019 03 07^$eVclick[YlThM^oh6;SX1a7uShere-S?TJ6O;OT[+i:Qw\Yx@(D29
     X65981   C2019 03 07f0DthforU[Y+5A^.ObE$Wt28Y!,dexplanationyBCw=='J7JYs)D29

Station data:
(D29) Purple Mountain Observatory, XuYi Station  (N32.734366 E118.463900)
   China.  Observers H. B. Zhao, B. Li, G. Zhaori, R. Q. Hong, L. F. Hu.
   Measurers H. B. Zhao, B. Li. H. Lu, G. Zhaori. 1.04-m f/1.8 Schmidt + CCD.

Orbital elements:  X65981
   Perihelion 2019 Apr 8.787377 +/- 41.1 TT = 18:53:49 (JD 2458582.287377)
Epoch 2019 Mar  8.0 TT = JDT 2458550.5   Earth MOID: 0.4671   Ju: 0.3700
M 354.05765887 +/- 29               Ma: 0.0021                AutoNEOCP
n   0.18694028 +/- 0.29             Peri.  168.02796 +/- 80
a   3.02924305 +/- 3.13             Node    31.34380 +/- 40
e   0.5150935 +/- 0.253             Incl.    1.99038 +/- 2.3
P   5.27                   H 21.0   G  0.15   U 11.9  SR
q 1.46889956 +/- 0.492    Q 4.58958654 +/- 47.4
From 3 observations 2019 Mar. 7 (40.7 min); mean residual 0".23
Residuals in arcseconds: 
190307 D29  .12+  .20+    190307 D29  .24-  .40-    190307 D29  .12+  .20+    

Ephemerides (geocentric):
Date (UTC) HH   RA              Dec         delta   r     elong  mag " sig PA
---- -- -- --  -------------   -----------  ------ ------ -----  --- ---- ---
2019 03 18 18  13 17 17.522   -05 25 47.99  .51504 1.4844 157.6 21.2  68d 177
2019 03 18 19  13 17 18.601   -05 26 01.59  .51488 1.4843 157.6 21.2  68d 177
2019 03 18 20  13 17 19.677   -05 26 15.18  .51472 1.4843 157.6 21.2  68d 177
2019 03 18 21  13 17 20.751   -05 26 28.76  .51456 1.4842 157.7 21.2  68d 177
2019 03 18 22  13 17 21.821   -05 26 42.34  .51440 1.4842 157.7 21.2  68d 177
2019 03 18 23  13 17 22.889   -05 26 55.92  .51424 1.4841 157.7 21.2  68d 177
2019 03 19 00  13 17 23.954   -05 27 09.48  .51408 1.4840 157.8 21.2  68d 177
2019 03 19 01  13 17 25.016   -05 27 23.04  .51393 1.4840 157.8 21.2  68d 177
2019 03 19 02  13 17 26.075   -05 27 36.59  .51377 1.4839 157.9 21.2  68d 177
2019 03 19 03  13 17 27.132   -05 27 50.14  .51361 1.4839 157.9 21.2  68d 177
2019 03 19 04  13 17 28.185   -05 28 03.68  .51345 1.4838 157.9 21.2  68d 178
2019 03 19 05  13 17 29.236   -05 28 17.21  .51330 1.4837 158.0 21.2  68d 178
2019 03 19 06  13 17 30.284   -05 28 30.74  .51314 1.4837 158.0 21.2  68d 178
2019 03 19 07  13 17 31.329   -05 28 44.26  .51298 1.4836 158.0 21.2  68d 178
2019 03 19 08  13 17 32.372   -05 28 57.78  .51283 1.4836 158.1 21.2  68d 178
2019 03 19 09  13 17 33.411   -05 29 11.29  .51267 1.4835 158.1 21.2  68d 178
2019 03 19 10  13 17 34.448   -05 29 24.79  .51251 1.4834 158.1 21.2  68d 178
2019 03 19 11  13 17 35.482   -05 29 38.29  .51236 1.4834 158.2 21.2  69d 178
2019 03 19 12  13 17 36.514   -05 29 51.78  .51220 1.4833 158.2 21.2  69d 178
2019 03 19 13  13 17 37.542   -05 30 05.26  .51205 1.4833 158.2 21.2  69d 178
2019 03 19 14  13 17 38.568   -05 30 18.74  .51189 1.4832 158.3 21.2  69d 178
2019 03 19 15  13 17 39.591   -05 30 32.21  .51174 1.4831 158.3 21.2  69d 178
2019 03 19 16  13 17 40.611   -05 30 45.67  .51158 1.4831 158.4 21.2  69d 178
2019 03 19 17  13 17 41.628   -05 30 59.13  .51143 1.4830 158.4 21.2  69d 178
2019 03 19 18  13 17 42.643   -05 31 12.58  .51128 1.4830 158.4 21.2  69d 178
2019 03 19 19  13 17 43.654   -05 31 26.03  .51112 1.4829 158.5 21.2  69d 178
2019 03 19 20  13 17 44.663   -05 31 39.47  .51097 1.4829 158.5 21.2  70d 178
2019 03 19 21  13 17 45.670   -05 31 52.90  .51082 1.4828 158.5 21.2  70d 178
2019 03 19 22  13 17 46.673   -05 32 06.33  .51066 1.4827 158.6 21.2  70d 178
2019 03 19 23  13 17 47.674   -05 32 19.75  .51051 1.4827 158.6 21.2  70d 178
2019 03 20 00  13 17 48.671   -05 32 33.17  .51036 1.4826 158.6 21.2  70d 178
2019 03 20 01  13 17 49.667   -05 32 46.58  .51021 1.4826 158.7 21.2  70d 178
2019 03 20 02  13 17 50.659   -05 32 59.98  .51005 1.4825 158.7 21.2  70d 178
2019 03 20 03  13 17 51.648   -05 33 13.38  .50990 1.4825 158.8 21.2  70d 178
2019 03 20 04  13 17 52.635   -05 33 26.77  .50975 1.4824 158.8 21.2  71d 178
2019 03 20 05  13 17 53.619   -05 33 40.15  .50960 1.4823 158.8 21.2  71d 178
2019 03 20 06  13 17 54.600   -05 33 53.53  .50945 1.4823 158.9 21.2  71d 178
2019 03 20 07  13 17 55.579   -05 34 06.90  .50930 1.4822 158.9 21.2  71d 178
2019 03 20 08  13 17 56.554   -05 34 20.27  .50915 1.4822 158.9 21.2  71d 178
2019 03 20 09  13 17 57.527   -05 34 33.63  .50900 1.4821 159.0 21.2  71d 178
2019 03 20 10  13 17 58.498   -05 34 46.98  .50885 1.4821 159.0 21.2  71d 178
2019 03 20 11  13 17 59.465   -05 35 00.33  .50870 1.4820 159.0 21.2  71d 178
2019 03 20 12  13 18 00.430   -05 35 13.67  .50855 1.4819 159.1 21.2  71d 178
2019 03 20 13  13 18 01.392   -05 35 27.01  .50840 1.4819 159.1 21.2  71d 178
2019 03 20 14  13 18 02.351   -05 35 40.34  .50825 1.4818 159.2 21.2  71d 178
2019 03 20 15  13 18 03.307   -05 35 53.66  .50811 1.4818 159.2 21.2  71d 178
2019 03 20 16  13 18 04.261   -05 36 06.98  .50796 1.4817 159.2 21.2  71d 178
2019 03 20 17  13 18 05.211   -05 36 20.29  .50781 1.4817 159.3 21.2  71d 178